This is the latest recevied weather packets stored in our database for station/object DB0SVX. If no packets are shown the sender has not sent any weather packets the latest 10 day(s).
| Time | Temp. | Humidity | Pressure | Rain* | Wind** | Luminosity | Snow |
|---|---|---|---|---|---|---|---|
| 1777530319 | 4.44° C | 47% | 1022.4 hPa | 0 mm | - | - | - |
| 1777529419 | 3.89° C | 47% | 1022.2 hPa | 0 mm | - | - | - |
| 1777528519 | 3.89° C | 48% | 1022.4 hPa | 0 mm | - | - | - |
| 1777527619 | 3.33° C | 50% | 1022.2 hPa | 0 mm | - | - | - |
| 1777526719 | 2.78° C | 51% | 1022.2 hPa | 0 mm | - | - | - |
| 1777525819 | 2.78° C | 51% | 1022 hPa | 0 mm | - | - | - |
| 1777524919 | 2.22° C | 51% | 1021.7 hPa | 0 mm | - | - | - |
| 1777524019 | 2.22° C | 52% | 1021.5 hPa | 0 mm | - | - | - |
| 1777523119 | 1.67° C | 53% | 1021.4 hPa | 0 mm | - | - | - |
| 1777522219 | 2.22° C | 53% | 1021.4 hPa | 0 mm | - | - | - |
| 1777521319 | 2.22° C | 53% | 1021.5 hPa | 0 mm | - | - | - |
| 1777520419 | 2.78° C | 53% | 1021.5 hPa | 0 mm | - | - | - |
| 1777519519 | 2.78° C | 53% | 1021.5 hPa | 0 mm | - | - | - |
| 1777518619 | 2.78° C | 53% | 1021.5 hPa | 0 mm | - | - | - |
| 1777517720 | 2.78° C | 53% | 1021.5 hPa | 0 mm | - | - | - |
| 1777516819 | 3.33° C | 53% | 1021.2 hPa | 0 mm | - | - | - |
| 1777515919 | 3.33° C | 53% | 1021.5 hPa | 0 mm | - | - | - |
| 1777515019 | 3.33° C | 52% | 1021.7 hPa | 0 mm | - | - | - |
| 1777514119 | 3.89° C | 52% | 1021.5 hPa | 0 mm | - | - | - |
| 1777513219 | 3.89° C | 51% | 1021.4 hPa | 0 mm | - | - | - |
| 1777512319 | 3.89° C | 50% | 1021 hPa | 0 mm | - | - | - |
| 1777511419 | 4.44° C | 49% | 1021.2 hPa | 0 mm | - | - | - |
| 1777510519 | 4.44° C | 49% | 1021 hPa | 0 mm | - | - | - |
| 1777509619 | 5° C | 48% | 1021 hPa | 0 mm | - | - | - |
| 1777508719 | 5° C | 47% | 1021.2 hPa | 0 mm | - | - | - |
* Rain latest hour (hover to see other rain measurements)
** Current wind speed in m/s (hover to see current wind gust speed)